Kennedy Space Center, FL

6:40 PM EST on February 25, 2017 (GMT -0500)
Nasa Shuttle

Weather History for KTTS - October, 2013

Change the Weather History Date:

Thursday, October 17, 2013

  Actual Average Record
Temperature  
Mean Temperature 75 °F -  
Max Temperature 84 °F 79 °F 86 °F (1998)
Min Temperature 66 °F 65 °F 53 °F (2010)
Cooling Degree Days 10    
Growing Degree Days 25 (Base 50)    
Moisture  
Dew Point 69 °F    
Average Humidity 88    
Maximum Humidity 100    
Minimum Humidity 66    
Precipitation  
Precipitation 0.00 in - - ()
Sea Level Pressure  
Sea Level Pressure 29.96 in    
Wind  
Wind Speed 3 mph (NW)    
Max Wind Speed 9 mph    
Max Gust Speed -    
Visibility 6 miles    
Events Fog    
Averages and records for this station are not official NWS values.
T = Trace of Precipitation, MM = Missing Value Source: NWS Daily Summary

Daily Weather History Graph

Daily Weather History Graph

Search for Another Location

Airport or City:

Trip Planner

Search our weather history database for the weather conditions in past years. The results will help you decide how hot, cold, wet, or windy it might be!

Date:

Astronomy

Oct. 17, 2013 Rise Set
Actual Time 7:25 AM EDT 6:50 PM EDT
Civil Twilight 7:01 AM EDT 7:14 PM EDT
Nautical Twilight 6:33 AM EDT 7:42 PM EDT
Astronomical Twilight 6:06 AM EDT 8:09 PM EDT
Moon 6:01 PM EDT (10/17) 6:00 AM EDT (10/17)
Length of Visible Light 12h 13m
Length of Day
11h 25m
Waxing Gibbous, 98% of the Moon is Illuminated
Oct 17
Waxing Gibbous
Oct 18
Full
Oct 26
Last Quarter
Nov 3
New
Nov 10
First Quarter

Hourly Weather History & Observations

Time (EDT) Temp. Heat Index Dew Point Humidity Pressure Visibility Wind Dir Wind Speed Gust Speed Precip Events Conditions
12:58 AM 68.5 °F - 68.0 °F 98% 29.96 in 10.0 mi Calm Calm - N/A   Clear
1:58 AM 68.4 °F - 67.8 °F 98% 29.95 in 10.0 mi West 2.3 mph - N/A   Clear
2:58 AM 67.6 °F - 66.9 °F 98% 29.94 in 10.0 mi West 2.3 mph - N/A   Clear
3:58 AM 70.0 °F - 69.3 °F 98% 29.93 in 10.0 mi NW 2.3 mph - N/A   Clear
4:58 AM 71.2 °F - 69.6 °F 95% 29.93 in 10.0 mi WNW 2.3 mph - N/A   Clear
5:33 AM 69.8 °F - 68.0 °F 94% 29.94 in 1.8 mi West 2.3 mph - N/A   Clear
5:48 AM 69.8 °F - 68.0 °F 94% 29.94 in 2.5 mi WSW 2.3 mph - N/A   Clear
5:53 AM 69.8 °F - 68.0 °F 94% 29.94 in 6.0 mi WSW 3.5 mph - N/A   Clear
5:58 AM 70.2 °F - 68.7 °F 95% 29.95 in 8.0 mi WSW 3.5 mph - N/A   Clear
6:18 AM 68.0 °F - 66.2 °F 94% 29.94 in 2.5 mi WNW 2.3 mph - N/A   Clear
6:23 AM 68.0 °F - 66.2 °F 94% 29.94 in 1.5 mi Calm Calm - N/A   Clear
6:48 AM 69.8 °F - 68.0 °F 94% 29.95 in 1.0 mi NW 2.3 mph - N/A   Mist
6:58 AM 69.4 °F - 67.6 °F 94% 29.96 in 1.0 mi NW 3.5 mph - N/A   Mist
7:03 AM 69.8 °F - 68.0 °F 94% 29.95 in 1.2 mi NW 1.2 mph - N/A   Partly Cloudy
7:13 AM 68.0 °F - 66.2 °F 94% 29.95 in 1.8 mi WNW 2.3 mph - N/A   Partly Cloudy
7:23 AM 68.0 °F - 66.2 °F 94% 29.95 in 3.0 mi West 2.3 mph - N/A   Clear
7:33 AM 66.2 °F - 66.2 °F 100% 29.95 in 2.0 mi Calm Calm - N/A   Clear
7:43 AM 68.0 °F - 66.2 °F 94% 29.95 in 1.8 mi West 1.2 mph - N/A   Clear
7:48 AM 68.0 °F - 66.2 °F 94% 29.95 in 1.0 mi WNW 1.2 mph - N/A   Mist
7:53 AM 68.0 °F - 66.2 °F 94% 29.95 in 0.8 mi WNW 1.2 mph - N/A   Mist
7:58 AM 67.6 °F - 65.8 °F 94% 29.97 in 0.5 mi WNW 3.5 mph - N/A Fog Fog
8:08 AM 69.8 °F - 66.2 °F 88% 29.96 in 1.2 mi WNW 2.3 mph - N/A   Scattered Clouds
8:13 AM 69.8 °F - 68.0 °F 94% 29.96 in 6.0 mi NW 3.5 mph - N/A   Scattered Clouds
8:38 AM 73.4 °F - 69.8 °F 88% 29.97 in 6.0 mi NW 4.6 mph - N/A   Mostly Cloudy
8:48 AM 73.4 °F - 69.8 °F 88% 29.97 in 2.5 mi NW 8.1 mph - N/A   Mostly Cloudy
8:53 AM 73.4 °F - 69.8 °F 88% 29.97 in 3.0 mi NW 8.1 mph - N/A   Overcast
8:58 AM 73.4 °F - 69.8 °F 88% 29.98 in 8.0 mi NW 6.9 mph - N/A   Overcast
9:18 AM 75.2 °F - 69.8 °F 83% 29.98 in 10.0 mi NW 8.1 mph - N/A   Scattered Clouds
9:58 AM 77.7 °F - 72.7 °F 84% 30.00 in 10.0 mi WNW 9.2 mph - N/A   Clear
10:58 AM 81.3 °F 85.9 °F 72.1 °F 74% 30.00 in 10.0 mi WNW 5.8 mph - N/A   Clear
11:58 AM 83.8 °F 89.5 °F 72.1 °F 68% 30.00 in 10.0 mi NNW 5.8 mph - N/A   Clear
12:58 PM 81.9 °F 85.4 °F 69.6 °F 66% 29.98 in 10.0 mi NNE 4.6 mph - N/A   Mostly Cloudy
1:58 PM 81.3 °F 85.6 °F 71.4 °F 72% 29.96 in 10.0 mi NE 5.8 mph - N/A   Overcast
2:58 PM 84.7 °F 91.4 °F 73.2 °F 68% 29.94 in 10.0 mi Variable 6.9 mph - N/A   Clear
3:58 PM 83.8 °F 89.5 °F 72.3 °F 68% 29.93 in 10.0 mi NE 6.9 mph - N/A   Partly Cloudy
4:58 PM 83.5 °F 88.2 °F 71.2 °F 66% 29.93 in 10.0 mi NE 8.1 mph - N/A   Clear
5:58 PM 81.5 °F 85.5 °F 70.7 °F 70% 29.93 in 10.0 mi East 5.8 mph - N/A   Clear
6:58 PM 76.6 °F - 70.9 °F 82% 29.94 in 10.0 mi East 4.6 mph - N/A   Clear
7:58 PM 73.6 °F - 69.6 °F 87% 29.95 in 10.0 mi ESE 3.5 mph - N/A   Clear
8:58 PM 71.4 °F - 69.3 °F 93% 29.95 in 10.0 mi ESE 4.6 mph - N/A   Clear
9:58 PM 69.6 °F - 68.4 °F 96% 29.96 in 10.0 mi SE 2.3 mph - N/A   Clear
10:58 PM 69.4 °F - 68.4 °F 96% 29.97 in 10.0 mi Calm Calm - N/A   Clear
11:58 PM 68.2 °F - 67.3 °F 97% 29.96 in 10.0 mi Calm Calm - N/A   Clear